Flag for U.S.A. Weather past 2 weeks in Charleston, South Carolina, U.S.A.

Now
65 °F

Sunny.


Feels Like: 65 °F
Forecast: 51 / 74 °F
Wind: 10 mph from Northeast

Location: Charleston Air Force Base Reporting Station


UV Index: 7 (High)

Visibility: 10 mi


Pressure: 30.10 "Hg

Humidity: 54%

Dew point: 48 °F

Location of CharlestonLocation

Historic Weather in Charleston

°F

Charleston temperature yesterday

Maximum temperature yesterday: 67 °F (at 2:56 PM)
Minimum temperature yesterday: 53 °F (at 1:56 AM)
Average temperature yesterday: 60 °F

Past Weeks' High & Low Weather Summary

 TemperatureHumidityPressure
High82 °F (Apr 12, 2:56 PM)94% (Apr 7, 9:56 PM)30.45 "Hg (Apr 7, 9:56 PM)
Low42 °F (Apr 16, 6:56 AM)22% (Apr 10, 12:56 PM)29.61 "Hg (Apr 8, 5:56 PM)
Average64 °F68%30.07 "Hg
* Reported Apr 6 8:56 AM — Apr 21 8:56 AM, Charleston, Weather by CustomWeather, © 2014

Note: Actual official high and low records may vary slightly from our data, if they occured in-between our weather recording intervals... More about our weather records

Advertising

Historic Weather Conditions — Data for Previous 24 hours

 ConditionsComfort  
Time TempWeatherWind HumidityBarometerVisibility
8:56 AM
Apr 21
61 °FSunny.13 mph58%30.10 "Hg10 mi
7:56 AM57 °FSunny.9 mph62%30.09 "Hg10 mi
6:56 AM56 °FPassing clouds.13 mph62%30.07 "Hg10 mi
5:56 AM56 °FClear.10 mph65%30.07 "Hg10 mi
4:56 AM57 °FClear.10 mph64%30.06 "Hg10 mi
3:56 AM59 °FPassing clouds.10 mph62%30.07 "Hg10 mi
2:56 AM61 °FPassing clouds.12 mph60%30.07 "Hg10 mi
1:56 AM60 °FPassing clouds.10 mph65%30.08 "Hg10 mi
12:56 AM61 °FMostly cloudy.9 mph65%30.10 "Hg10 mi
11:56 PM
Apr 20
62 °FMostly cloudy.13 mph62%30.11 "Hg10 mi
10:56 PM63 °FMostly cloudy.15 mph65%30.11 "Hg10 mi
9:56 PM65 °FOvercast.15 mph61%30.11 "Hg10 mi
8:56 PM64 °FOvercast.12 mph63%30.10 "Hg10 mi
7:56 PM65 °FOvercast.12 mph61%30.09 "Hg10 mi
6:56 PM65 °FMostly cloudy.13 mph61%30.08 "Hg10 mi
5:56 PM65 °FPartly sunny.18 mph59%30.08 "Hg10 mi
4:56 PM67 °FPartly sunny.22 mph53%30.07 "Hg10 mi
3:56 PM66 °FMore clouds than sun.18 mph54%30.09 "Hg10 mi
2:56 PM67 °FBroken clouds.22 mph55%30.09 "Hg10 mi
1:56 PM66 °FOvercast.13 mph56%30.10 "Hg10 mi
12:56 PM66 °FOvercast.21 mph59%30.09 "Hg10 mi
11:56 AM63 °FMostly cloudy.13 mph63%30.10 "Hg10 mi
10:56 AM62 °FMostly cloudy.15 mph67%30.10 "Hg10 mi
Weather by CustomWeather, © 2014

See weather overview